| time (UTC) | temp C | wind direction | speed KPH | gust KPH | rain 1hr cm | rain 24hr cm | rain mn cm | humidity % | barometer mb |
| 20260505140305 | 9 | 106 | 8.0 | 14.5 | 0.00 | 0.00 | 0.00 | 69 | 1013.0 |
| 20260505130228 | 9 | 81 | 12.9 | 14.5 | 0.00 | 0.00 | 0.00 | 70 | 1012.3 |
| 20260505124719 | 9 | 74 | 12.9 | 20.9 | 0.00 | 0.00 | 0.00 | 69 | 1011.8 |
| 20260505124215 | 9 | 71 | 11.3 | 12.9 | 0.00 | 0.00 | 0.00 | 70 | 1012.0 |
| 20260505123711 | 9 | 72 | 8.0 | 14.5 | 0.00 | 0.00 | 0.00 | 69 | 1011.9 |
| 20260505123208 | 9 | 85 | 8.0 | 12.9 | 0.00 | 0.00 | 0.00 | 70 | 1011.9 |
| 20260505122705 | 9 | 78 | 11.3 | 14.5 | 0.00 | 0.00 | 0.00 | 70 | 1011.9 |
| 20260505122202 | 9 | 52 | 6.4 | 11.3 | 0.00 | 0.00 | 0.00 | 70 | 1011.9 |
| 20260505121658 | 9 | 75 | 4.8 | 4.8 | 0.00 | 0.00 | 0.00 | 71 | 1011.5 |
| 20260505121155 | 9 | 76 | 6.4 | 14.5 | 0.00 | 0.00 | 0.00 | 70 | 1011.4 |
| 20260505120651 | 9 | 74 | 6.4 | 9.7 | 0.00 | 0.00 | 0.00 | 70 | 1011.4 |
| 20260505120147 | 9 | 77 | 3.2 | 4.8 | 0.00 | 0.00 | 0.00 | 71 | 1011.4 |
| 20260505115641 | 9 | 76 | 6.4 | 6.4 | 0.00 | 0.00 | 0.00 | 70 | 1011.2 |
| 20260505115139 | 9 | 81 | 4.8 | 9.7 | 0.00 | 0.00 | 0.00 | 69 | 1011.2 |
| 20260505114636 | 9 | 76 | 3.2 | 6.4 | 0.00 | 0.00 | 0.00 | 69 | 1010.9 |
| 20260505114132 | 9 | 74 | 6.4 | 6.4 | 0.00 | 0.00 | 0.00 | 68 | 1010.9 |
| 20260505113629 | 9 | 116 | 1.6 | 3.2 | 0.00 | 0.00 | 0.00 | 69 | 1011.1 |
| 20260505113126 | 9 | 99 | 0.0 | 3.2 | 0.00 | 0.00 | 0.00 | 68 | 1011.2 |
| 20260505112622 | 9 | 78 | 0.0 | 0.0 | 0.00 | 0.00 | 0.00 | 69 | 1010.7 |
| 20260505112120 | 8 | 1 | 1.6 | 3.2 | 0.00 | 0.00 | 0.00 | 68 | 1010.7 |
| 20260505111619 | 8 | 354 | 1.6 | 1.6 | 0.00 | 0.00 | 0.00 | 69 | 1010.6 |
| 20260505111116 | 8 | 340 | 0.0 | 1.6 | 0.00 | 0.00 | 0.00 | 71 | 1010.6 |
| 20260505110612 | 8 | 342 | 0.0 | 0.0 | 0.00 | 0.00 | 0.00 | 70 | 1010.8 |
| 20260505110109 | 9 | 348 | 0.0 | 1.6 | 0.00 | 0.00 | 0.00 | 68 | 1010.8 |
| 20260505102045 | 8 | 69 | 0.0 | 1.6 | 0.00 | 0.00 | 0.00 | 72 | 1011.1 |
| 20260505101543 | 9 | 49 | 1.6 | 3.2 | 0.00 | 0.00 | 0.00 | 71 | 1011.3 |
| 20260505101039 | 10 | 16 | 0.0 | 3.2 | 0.00 | 0.00 | 0.00 | 69 | 1011.3 |
| 20260505100536 | 10 | 353 | 3.2 | 4.8 | 0.00 | 0.00 | 0.00 | 68 | 1011.1 |
| 20260505100033 | 9 | 339 | 1.6 | 3.2 | 0.00 | 0.00 | 0.00 | 70 | 1010.8 |
| 20260505095529 | 9 | 334 | 1.6 | 3.2 | 0.00 | 0.00 | 0.00 | 70 | 1011.1 |
| 20260505095026 | 10 | 341 | 1.6 | 3.2 | 0.00 | 0.00 | 0.00 | 69 | 1010.9 |
| 20260505094522 | 10 | 339 | 0.0 | 1.6 | 0.00 | 0.00 | 0.00 | 69 | 1011.1 |
| 20260505094019 | 10 | 335 | 0.0 | 1.6 | 0.00 | 0.00 | 0.00 | 69 | 1011.1 |
| 20260505093515 | 10 | 331 | 0.0 | 3.2 | 0.00 | 0.00 | 0.00 | 69 | 1011.2 |
| 20260505093013 | 10 | 323 | 1.6 | 1.6 | 0.00 | 0.00 | 0.00 | 69 | 1011.1 |
| 20260505092510 | 10 | 318 | 1.6 | 3.2 | 0.00 | 0.00 | 0.00 | 69 | 1010.9 |
| 20260505092008 | 10 | 312 | 0.0 | 3.2 | 0.00 | 0.00 | 0.00 | 70 | 1010.8 |
| 20260505091505 | 10 | 330 | 1.6 | 1.6 | 0.00 | 0.00 | 0.00 | 70 | 1010.8 |
| 20260505091003 | 10 | 326 | 1.6 | 1.6 | 0.00 | 0.00 | 0.00 | 70 | 1010.9 |
| 20260505090501 | 10 | 310 | 0.0 | 0.0 | 0.00 | 0.00 | 0.00 | 69 | 1010.9 |
| 20260505085958 | 10 | 322 | 0.0 | 0.0 | 0.00 | 0.00 | 0.00 | 68 | 1010.9 |
| 20260505085455 | 10 | 314 | 0.0 | 1.6 | 0.00 | 0.00 | 0.00 | 68 | 1010.9 |
| 20260505084954 | 10 | 314 | 0.0 | 1.6 | 0.00 | 0.00 | 0.00 | 67 | 1010.9 |
| 20260505084452 | 11 | 341 | 1.6 | 4.8 | 0.00 | 0.00 | 0.00 | 66 | 1010.9 |
| 20260505083949 | 11 | 4 | 4.8 | 4.8 | 0.00 | 0.00 | 0.00 | 65 | 1011.1 |
| 20260505083446 | 11 | 5 | 1.6 | 4.8 | 0.00 | 0.00 | 0.00 | 65 | 1011.1 |
| 20260505082942 | 11 | 344 | 6.4 | 9.7 | 0.00 | 0.00 | 0.00 | 64 | 1010.9 |
| 20260505082438 | 11 | 358 | 3.2 | 9.7 | 0.00 | 0.00 | 0.00 | 64 | 1010.8 |
| 20260505081936 | 11 | 6 | 6.4 | 11.3 | 0.00 | 0.00 | 0.00 | 64 | 1010.9 |
| 20260505081432 | 11 | 10 | 6.4 | 9.7 | 0.00 | 0.00 | 0.00 | 66 | 1011.1 |
| 20260505080928 | 11 | 10 | 1.6 | 4.8 | 0.00 | 0.00 | 0.00 | 67 | 1011.1 |
| 20260505080425 | 11 | 0 | 3.2 | 6.4 | 0.00 | 0.00 | 0.00 | 67 | 1011.1 |
| 20260505075920 | 11 | 303 | 4.8 | 4.8 | 0.00 | 0.00 | 0.00 | 66 | 1010.9 |
| 20260505075417 | 11 | 1 | 6.4 | 6.4 | 0.00 | 0.00 | 0.00 | 66 | 1011.1 |
| 20260505074915 | 11 | 349 | 6.4 | 9.7 | 0.00 | 0.00 | 0.00 | 66 | 1010.8 |
| 20260505074412 | 11 | 354 | 6.4 | 6.4 | 0.00 | 0.00 | 0.00 | 66 | 1011.1 |
| 20260505073909 | 11 | 329 | 3.2 | 4.8 | 0.00 | 0.00 | 0.00 | 66 | 1010.8 |
| 20260505073407 | 11 | 352 | 3.2 | 4.8 | 0.00 | 0.00 | 0.00 | 66 | 1010.8 |
| 20260505072904 | 11 | 311 | 3.2 | 4.8 | 0.00 | 0.00 | 0.00 | 66 | 1011.1 |
| 20260505072359 | 12 | 319 | 1.6 | 3.2 | 0.00 | 0.00 | 0.00 | 66 | 1010.9 |
| 20260505071856 | 12 | 1 | 3.2 | 6.4 | 0.00 | 0.00 | 0.00 | 65 | 1010.6 |
| 20260505071352 | 12 | 359 | 3.2 | 11.3 | 0.00 | 0.00 | 0.00 | 64 | 1010.5 |
| 20260505070851 | 12 | 340 | 4.8 | 9.7 | 0.00 | 0.00 | 0.00 | 64 | 1010.5 |
| 20260505070347 | 12 | 289 | 4.8 | 11.3 | 0.00 | 0.00 | 0.00 | 63 | 1010.6 |
| 20260505065842 | 12 | 348 | 6.4 | 12.9 | 0.00 | 0.00 | 0.00 | 63 | 1010.2 |
| 20260505065339 | 12 | 345 | 8.0 | 14.5 | 0.00 | 0.00 | 0.00 | 62 | 1010.1 |
| 20260505064836 | 12 | 347 | 9.7 | 20.9 | 0.00 | 0.00 | 0.00 | 62 | 1010.0 |
| 20260505064333 | 13 | 347 | 9.7 | 17.7 | 0.00 | 0.00 | 0.00 | 61 | 1010.1 |
| 20260505063832 | 13 | 350 | 9.7 | 11.3 | 0.00 | 0.00 | 0.00 | 60 | 1010.6 |
| 20260505063327 | 13 | 358 | 9.7 | 16.1 | 0.00 | 0.00 | 0.00 | 60 | 1010.5 |
| 20260505062824 | 13 | 356 | 11.3 | 14.5 | 0.00 | 0.00 | 0.00 | 60 | 1010.6 |
| 20260505062322 | 13 | 350 | 8.0 | 12.9 | 0.00 | 0.00 | 0.00 | 60 | 1010.4 |
| 20260505061818 | 13 | 5 | 8.0 | 12.9 | 0.00 | 0.00 | 0.00 | 60 | 1010.5 |
| 20260505061316 | 13 | 309 | 4.8 | 12.9 | 0.00 | 0.00 | 0.00 | 60 | 1010.4 |
| 20260505060813 | 13 | 338 | 4.8 | 9.7 | 0.00 | 0.00 | 0.00 | 59 | 1010.5 |
| 20260505060310 | 13 | 350 | 8.0 | 12.9 | 0.00 | 0.00 | 0.00 | 58 | 1010.7 |
| 20260505055806 | 13 | 351 | 12.9 | 16.1 | 0.00 | 0.00 | 0.00 | 58 | 1010.8 |
| 20260505055303 | 13 | 302 | 11.3 | 14.5 | 0.00 | 0.00 | 0.00 | 58 | 1010.5 |
| 20260505054800 | 13 | 350 | 12.9 | 17.7 | 0.00 | 0.00 | 0.00 | 58 | 1010.7 |
| 20260505054257 | 13 | 359 | 14.5 | 20.9 | 0.00 | 0.00 | 0.00 | 57 | 1010.6 |
| 20260505053755 | 13 | 356 | 8.0 | 12.9 | 0.00 | 0.00 | 0.00 | 59 | 1010.4 |
| 20260505053252 | 13 | 329 | 9.7 | 12.9 | 0.00 | 0.00 | 0.00 | 59 | 1010.4 |
| 20260505052749 | 13 | 358 | 8.0 | 12.9 | 0.00 | 0.00 | 0.00 | 59 | 1010.5 |
| 20260505052246 | 13 | 302 | 8.0 | 14.5 | 0.00 | 0.00 | 0.00 | 59 | 1010.4 |
| 20260505051742 | 13 | 344 | 8.0 | 11.3 | 0.00 | 0.00 | 0.00 | 59 | 1010.4 |
| 20260505051241 | 13 | 313 | 8.0 | 11.3 | 0.00 | 0.00 | 0.00 | 59 | 1010.2 |
| 20260505050738 | 13 | 338 | 4.8 | 14.5 | 0.00 | 0.00 | 0.00 | 59 | 1010.5 |
| 20260505050237 | 13 | 31 | 6.4 | 14.5 | 0.00 | 0.00 | 0.00 | 58 | 1010.5 |
| 20260505041706 | 14 | 309 | 4.8 | 6.4 | 0.00 | 0.00 | 0.00 | 59 | 1010.2 |
| 20260505041203 | 13 | 354 | 6.4 | 11.3 | 0.00 | 0.00 | 0.00 | 58 | 1010.2 |
| 20260505040700 | 14 | 348 | 12.9 | 17.7 | 0.00 | 0.00 | 0.00 | 59 | 1010.2 |
| 20260505040158 | 14 | 337 | 16.1 | 20.9 | 0.00 | 0.00 | 0.00 | 59 | 1010.1 |
| 20260505035654 | 15 | 324 | 9.7 | 17.7 | 0.00 | 0.00 | 0.00 | 53 | 1010.2 |
| 20260505035150 | 15 | 330 | 9.7 | 22.5 | 0.00 | 0.00 | 0.00 | 51 | 1009.9 |
| 20260505034647 | 15 | 340 | 14.5 | 22.5 | 0.00 | 0.00 | 0.00 | 50 | 1009.5 |
| 20260505034144 | 15 | 321 | 9.7 | 20.9 | 0.00 | 0.00 | 0.00 | 50 | 1009.5 |
| 20260505033640 | 15 | 331 | 12.9 | 17.7 | 0.00 | 0.00 | 0.00 | 50 | 1009.2 |
| 20260505033139 | 15 | 332 | 11.3 | 17.7 | 0.00 | 0.00 | 0.00 | 50 | 1009.1 |
| 20260505032636 | 15 | 346 | 12.9 | 20.9 | 0.00 | 0.00 | 0.00 | 51 | 1009.0 |
| 20260505032133 | 15 | 320 | 8.0 | 14.5 | 0.00 | 0.00 | 0.00 | 52 | 1009.0 |
| 20260505031630 | 15 | 333 | 9.7 | 20.9 | 0.00 | 0.00 | 0.00 | 52 | 1008.8 |
| 20260505031126 | 15 | 296 | 11.3 | 17.7 | 0.00 | 0.00 | 0.00 | 52 | 1008.7 |
| 20260505030623 | 15 | 298 | 6.4 | 14.5 | 0.00 | 0.00 | 0.00 | 52 | 1008.7 |
| 20260505030119 | 15 | 323 | 8.0 | 27.4 | 0.00 | 0.00 | 0.00 | 50 | 1008.4 |
| 20260505025615 | 15 | 329 | 8.0 | 24.1 | 0.00 | 0.00 | 0.00 | 50 | 1008.4 |
| 20260505025114 | 15 | 266 | 9.7 | 12.9 | 0.00 | 0.00 | 0.00 | 52 | 1008.3 |
| 20260505024611 | 16 | 349 | 19.3 | 35.4 | 0.00 | 0.00 | 0.00 | 49 | 1008.4 |
| 20260505024108 | 16 | 4 | 24.1 | 35.4 | 0.00 | 0.00 | 0.00 | 49 | 1008.0 |
| 20260505023605 | 16 | 320 | 16.1 | 22.5 | 0.00 | 0.00 | 0.00 | 48 | 1007.9 |
| 20260505023103 | 16 | 344 | 17.7 | 25.7 | 0.00 | 0.00 | 0.00 | 48 | 1007.7 |
| 20260505022600 | 16 | 7 | 16.1 | 20.9 | 0.00 | 0.00 | 0.00 | 47 | 1007.3 |
| 20260505022057 | 16 | 354 | 16.1 | 25.7 | 0.00 | 0.00 | 0.00 | 46 | 1007.4 |
| 20260505021553 | 16 | 11 | 14.5 | 22.5 | 0.00 | 0.00 | 0.00 | 44 | 1007.6 |
| 20260505021050 | 16 | 0 | 14.5 | 20.9 | 0.00 | 0.00 | 0.00 | 44 | 1007.7 |
| 20260505020550 | 17 | 296 | 16.1 | 24.1 | 0.00 | 0.00 | 0.00 | 43 | 1007.7 |
| 20260505020048 | 17 | 334 | 9.7 | 22.5 | 0.00 | 0.00 | 0.00 | 42 | 1007.6 |
| 20260505015544 | 17 | 336 | 14.5 | 29.0 | 0.00 | 0.00 | 0.00 | 41 | 1007.3 |
| 20260505015041 | 18 | 313 | 17.7 | 20.9 | 0.00 | 0.00 | 0.00 | 40 | 1007.1 |
| 20260505014538 | 18 | 346 | 14.5 | 41.8 | 0.00 | 0.00 | 0.00 | 38 | 1007.1 |
| 20260505014035 | 19 | 345 | 17.7 | 29.0 | 0.00 | 0.00 | 0.00 | 37 | 1007.0 |
| 20260505013532 | 18 | 333 | 12.9 | 22.5 | 0.00 | 0.00 | 0.00 | 36 | 1006.6 |
| 20260505013030 | 18 | 310 | 6.4 | 20.9 | 0.00 | 0.00 | 0.00 | 37 | 1006.7 |
| 20260505012528 | 19 | 277 | 9.7 | 12.9 | 0.00 | 0.00 | 0.00 | 37 | 1006.6 |
| 20260505012025 | 19 | 1 | 17.7 | 24.1 | 0.00 | 0.00 | 0.00 | 37 | 1006.4 |
| 20260505011520 | 19 | 355 | 14.5 | 25.7 | 0.00 | 0.00 | 0.00 | 37 | 1006.2 |
| 20260505011017 | 19 | 10 | 9.7 | 14.5 | 0.00 | 0.00 | 0.00 | 37 | 1005.9 |
| 20260505010512 | 19 | 288 | 12.9 | 30.6 | 0.00 | 0.00 | 0.00 | 36 | 1005.6 |
| 20260505010009 | 20 | 292 | 16.1 | 25.7 | 0.00 | 0.00 | 0.00 | 35 | 1005.7 |
| 20260505005506 | 20 | 15 | 9.7 | 20.9 | 0.00 | 0.00 | 0.00 | 35 | 1005.9 |
| 20260505005004 | 20 | 352 | 8.0 | 16.1 | 0.00 | 0.00 | 0.00 | 34 | 1005.8 |
| 20260505004501 | 20 | 351 | 14.5 | 22.5 | 0.00 | 0.00 | 0.00 | 33 | 1005.9 |
| 20260505003957 | 21 | 329 | 11.3 | 25.7 | 0.00 | 0.00 | 0.00 | 32 | 1005.6 |
| 20260505003454 | 21 | 23 | 11.3 | 22.5 | 0.00 | 0.00 | 0.00 | 32 | 1005.5 |
| 20260505002950 | 21 | 8 | 11.3 | 25.7 | 0.00 | 0.00 | 0.00 | 32 | 1005.5 |
| 20260505002446 | 21 | 11 | 12.9 | 24.1 | 0.00 | 0.00 | 0.00 | 31 | 1005.5 |
| 20260505001945 | 21 | 355 | 16.1 | 25.7 | 0.00 | 0.00 | 0.00 | 31 | 1005.5 |
| 20260505001442 | 21 | 15 | 19.3 | 27.4 | 0.00 | 0.00 | 0.00 | 30 | 1005.3 |
| 20260505000939 | 21 | 336 | 16.1 | 17.7 | 0.00 | 0.00 | 0.00 | 30 | 1005.6 |
| 20260505000437 | 21 | 6 | 16.1 | 24.1 | 0.00 | 0.00 | 0.00 | 30 | 1005.6 |
| 20260504235934 | 22 | 317 | 6.4 | 14.5 | 0.00 | 0.00 | 0.00 | 30 | 1005.3 |
| 20260504235431 | 22 | 325 | 3.2 | 12.9 | 0.00 | 0.00 | 0.00 | 30 | 1005.3 |
| 20260504234927 | 22 | 7 | 6.4 | 9.7 | 0.00 | 0.00 | 0.00 | 29 | 1005.6 |
| 20260504234425 | 22 | 356 | 16.1 | 24.1 | 0.00 | 0.00 | 0.00 | 30 | 1005.5 |
| 20260504233921 | 22 | 18 | 11.3 | 20.9 | 0.00 | 0.00 | 0.00 | 29 | 1005.5 |
| 20260504233417 | 22 | 281 | 11.3 | 16.1 | 0.00 | 0.00 | 0.00 | 29 | 1005.3 |
| 20260504232914 | 22 | 291 | 6.4 | 17.7 | 0.00 | 0.00 | 0.00 | 29 | 1005.6 |
| 20260504232411 | 22 | 310 | 8.0 | 12.9 | 0.00 | 0.00 | 0.00 | 29 | 1005.2 |
| 20260504231908 | 22 | 325 | 6.4 | 9.7 | 0.00 | 0.00 | 0.00 | 30 | 1005.2 |
| 20260504231404 | 23 | 276 | 9.7 | 16.1 | 0.00 | 0.00 | 0.00 | 29 | 1005.2 |
| 20260504230901 | 25 | 274 | 8.0 | 14.5 | 0.00 | 0.00 | 0.00 | 25 | 1005.2 |
| 20260504230358 | 24 | 282 | 17.7 | 29.0 | 0.00 | 0.00 | 0.00 | 22 | 1005.2 |
| 20260504225856 | 24 | 284 | 14.5 | 27.4 | 0.00 | 0.00 | 0.00 | 22 | 1004.9 |
| 20260504225353 | 25 | 263 | 22.5 | 27.4 | 0.00 | 0.00 | 0.00 | 22 | 1004.9 |
| 20260504224850 | 25 | 276 | 20.9 | 37.0 | 0.00 | 0.00 | 0.00 | 23 | 1004.9 |
| 20260504224347 | 24 | 275 | 19.3 | 35.4 | 0.00 | 0.00 | 0.00 | 23 | 1005.0 |
| 20260504223844 | 25 | 294 | 20.9 | 30.6 | 0.00 | 0.00 | 0.00 | 24 | 1004.8 |
| 20260504223339 | 25 | 316 | 22.5 | 30.6 | 0.00 | 0.00 | 0.00 | 24 | 1004.9 |
| 20260504222836 | 25 | 277 | 12.9 | 27.4 | 0.00 | 0.00 | 0.00 | 23 | 1004.9 |
| 20260504222333 | 25 | 249 | 24.1 | 30.6 | 0.00 | 0.00 | 0.00 | 23 | 1004.6 |
| 20260504221831 | 25 | 294 | 14.5 | 27.4 | 0.00 | 0.00 | 0.00 | 23 | 1005.0 |
| 20260504221327 | 25 | 234 | 20.9 | 30.6 | 0.00 | 0.00 | 0.00 | 23 | 1005.0 |
| 20260504220825 | 25 | 265 | 14.5 | 25.7 | 0.00 | 0.00 | 0.00 | 23 | 1005.2 |
| 20260504220321 | 25 | 277 | 14.5 | 17.7 | 0.00 | 0.00 | 0.00 | 23 | 1005.0 |
| 20260504215819 | 25 | 270 | 24.1 | 29.0 | 0.00 | 0.00 | 0.00 | 23 | 1005.2 |
| 20260504215315 | 25 | 265 | 17.7 | 24.1 | 0.00 | 0.00 | 0.00 | 24 | 1005.3 |
| 20260504214811 | 25 | 303 | 14.5 | 24.1 | 0.00 | 0.00 | 0.00 | 24 | 1005.3 |
| 20260504214308 | 25 | 266 | 17.7 | 24.1 | 0.00 | 0.00 | 0.00 | 23 | 1005.1 |
| 20260504213805 | 25 | 285 | 27.4 | 33.8 | 0.00 | 0.00 | 0.00 | 23 | 1005.3 |
| 20260504213301 | 25 | 237 | 20.9 | 33.8 | 0.00 | 0.00 | 0.00 | 23 | 1005.6 |
| 20260504212758 | 25 | 257 | 27.4 | 35.4 | 0.00 | 0.00 | 0.00 | 24 | 1005.8 |
| 20260504212254 | 25 | 265 | 24.1 | 33.8 | 0.00 | 0.00 | 0.00 | 25 | 1005.9 |
| 20260504211752 | 25 | 286 | 22.5 | 37.0 | 0.00 | 0.00 | 0.00 | 24 | 1005.9 |
| 20260504211248 | 25 | 228 | 20.9 | 35.4 | 0.00 | 0.00 | 0.00 | 25 | 1005.8 |
| 20260504210746 | 25 | 283 | 22.5 | 29.0 | 0.00 | 0.00 | 0.00 | 24 | 1005.9 |
| 20260504210243 | 25 | 296 | 24.1 | 37.0 | 0.00 | 0.00 | 0.00 | 25 | 1005.9 |
| 20260504205739 | 25 | 256 | 29.0 | 41.8 | 0.00 | 0.00 | 0.00 | 24 | 1006.0 |
| 20260504205238 | 25 | 253 | 27.4 | 40.2 | 0.00 | 0.00 | 0.00 | 24 | 1006.2 |
| 20260504204735 | 25 | 274 | 35.4 | 43.5 | 0.00 | 0.00 | 0.00 | 24 | 1006.3 |
| 20260504204233 | 25 | 276 | 24.1 | 48.3 | 0.00 | 0.00 | 0.00 | 25 | 1006.0 |
| 20260504203733 | 25 | 276 | 24.1 | 33.8 | 0.00 | 0.00 | 0.00 | 25 | 1006.2 |
| 20260504203229 | 26 | 239 | 27.4 | 37.0 | 0.00 | 0.00 | 0.00 | 25 | 1006.2 |
| 20260504202729 | 26 | 268 | 25.7 | 33.8 | 0.00 | 0.00 | 0.00 | 25 | 1006.0 |
| 20260504202227 | 25 | 284 | 17.7 | 35.4 | 0.00 | 0.00 | 0.00 | 23 | 1006.3 |
| 20260504201724 | 25 | 276 | 20.9 | 43.5 | 0.00 | 0.00 | 0.00 | 23 | 1006.4 |
| 20260504201221 | 25 | 295 | 29.0 | 38.6 | 0.00 | 0.00 | 0.00 | 24 | 1006.3 |
| 20260504200719 | 25 | 287 | 29.0 | 40.2 | 0.00 | 0.00 | 0.00 | 25 | 1006.4 |
| 20260504200214 | 25 | 270 | 12.9 | 33.8 | 0.00 | 0.00 | 0.00 | 24 | 1006.2 |
| 20260504195711 | 26 | 300 | 16.1 | 22.5 | 0.00 | 0.00 | 0.00 | 22 | 1006.2 |
| 20260504195207 | 26 | 296 | 25.7 | 33.8 | 0.00 | 0.00 | 0.00 | 21 | 1006.3 |
| 20260504194704 | 26 | 294 | 24.1 | 37.0 | 0.00 | 0.00 | 0.00 | 21 | 1006.2 |
| 20260504194200 | 26 | 278 | 17.7 | 33.8 | 0.00 | 0.00 | 0.00 | 21 | 1006.3 |
| 20260504193657 | 26 | 350 | 6.4 | 14.5 | 0.00 | 0.00 | 0.00 | 20 | 1006.3 |
| 20260504193154 | 26 | 257 | 22.5 | 37.0 | 0.00 | 0.00 | 0.00 | 21 | 1006.3 |
| 20260504192652 | 25 | 270 | 16.1 | 20.9 | 0.00 | 0.00 | 0.00 | 21 | 1006.5 |
| 20260504192150 | 24 | 292 | 22.5 | 27.4 | 0.00 | 0.00 | 0.00 | 21 | 1006.4 |
| 20260504191648 | 25 | 267 | 8.0 | 17.7 | 0.00 | 0.00 | 0.00 | 21 | 1006.6 |
| 20260504191144 | 25 | 252 | 8.0 | 17.7 | 0.00 | 0.00 | 0.00 | 22 | 1006.6 |
| 20260504190640 | 26 | 280 | 14.5 | 25.7 | 0.00 | 0.00 | 0.00 | 21 | 1006.4 |
| 20260504190137 | 26 | 274 | 4.8 | 6.4 | 0.00 | 0.00 | 0.00 | 19 | 1006.7 |
| 20260504185633 | 25 | 13 | 3.2 | 4.8 | 0.00 | 0.00 | 0.00 | 20 | 1006.6 |
| 20260504185130 | 26 | 287 | 4.8 | 17.7 | 0.00 | 0.00 | 0.00 | 19 | 1007.2 |
| 20260504184626 | 25 | 299 | 8.0 | 11.3 | 0.00 | 0.00 | 0.00 | 20 | 1006.7 |
| 20260504184121 | 25 | 279 | 12.9 | 14.5 | 0.00 | 0.00 | 0.00 | 20 | 1007.0 |
| 20260504183619 | 26 | 261 | 16.1 | 25.7 | 0.00 | 0.00 | 0.00 | 21 | 1007.2 |
| 20260504183116 | 26 | 265 | 4.8 | 16.1 | 0.00 | 0.00 | 0.00 | 21 | 1007.2 |
| 20260504182614 | 24 | 255 | 6.4 | 9.7 | 0.00 | 0.00 | 0.00 | 23 | 1006.9 |
| 20260504182111 | 25 | 268 | 16.1 | 30.6 | 0.00 | 0.00 | 0.00 | 22 | 1007.2 |
| 20260504181608 | 25 | 285 | 17.7 | 29.0 | 0.00 | 0.00 | 0.00 | 22 | 1007.1 |
| 20260504181106 | 25 | 288 | 6.4 | 14.5 | 0.00 | 0.00 | 0.00 | 21 | 1007.1 |
| 20260504180605 | 25 | 220 | 12.9 | 24.1 | 0.00 | 0.00 | 0.00 | 23 | 1007.4 |
| 20260504180103 | 25 | 236 | 22.5 | 30.6 | 0.00 | 0.00 | 0.00 | 23 | 1007.2 |
| 20260504175600 | 25 | 206 | 19.3 | 29.0 | 0.00 | 0.00 | 0.00 | 23 | 1007.3 |
| 20260504175057 | 25 | 269 | 19.3 | 24.1 | 0.00 | 0.00 | 0.00 | 23 | 1007.4 |
| 20260504174555 | 25 | 330 | 3.2 | 11.3 | 0.00 | 0.00 | 0.00 | 23 | 1007.8 |
| 20260504174051 | 25 | 285 | 14.5 | 27.4 | 0.00 | 0.00 | 0.00 | 24 | 1007.9 |
| 20260504173548 | 25 | 288 | 11.3 | 27.4 | 0.00 | 0.00 | 0.00 | 24 | 1007.9 |
| 20260504173046 | 24 | 276 | 12.9 | 24.1 | 0.00 | 0.00 | 0.00 | 26 | 1007.8 |
| 20260504172541 | 25 | 260 | 9.7 | 20.9 | 0.00 | 0.00 | 0.00 | 26 | 1007.9 |
| 20260504172038 | 24 | 234 | 19.3 | 24.1 | 0.00 | 0.00 | 0.00 | 26 | 1008.0 |
| 20260504171535 | 23 | 253 | 11.3 | 24.1 | 0.00 | 0.00 | 0.00 | 27 | 1008.3 |
| 20260504171032 | 24 | 266 | 14.5 | 24.1 | 0.00 | 0.00 | 0.00 | 26 | 1008.3 |
| 20260504170528 | 23 | 236 | 20.9 | 25.7 | 0.00 | 0.00 | 0.00 | 26 | 1008.6 |
| 20260504150912 | 21 | 302 | 37.0 | 48.3 | 0.00 | 0.00 | 0.00 | 30 | 1009.4 |
| 20260504150409 | 21 | 279 | 35.4 | 43.5 | 0.00 | 0.00 | 0.00 | 31 | 1009.3 |